FalconSat 6

operational
NORAD ID: 43815 Int'l Des: 2018-099 Owner: AFSMC Country: US
LEOCIRCULARRETROGRADESSO

FalconSat 6について

説明を読み込み中...

リアルタイム位置

3D地球を読み込み中...

次回通過

高度履歴

Altitude vs Time

uPlot chart will show altitude changes over time

軌道要素

1 43815U 18099BK 26061.16991927 .00002365 00000-0 93337-4 0 9992
2 43815 97.3884 138.3434 0014770 325.8314 58.6370 15.26444576397409
Epoch: Mar 2, 2026 • Age: 33 hours

現在のステータス

高度 497.5 km
速度 7.61 km/s
衛星直下点 2.90°N, 22.79°E
打ち上げ日 Dec 3, 2018
運用期間 7.2 years
タイプ other

技術仕様

分類 Payload
質量 181.00 kg
乾燥質量 181.00 kg
総質量 181.00 kg
長さ 0.80 m
直径 0.40 m
スパン 4.00 m
形状 Box + Ant
製造者 USAFA
バスタイプ Falconsat
フェーズステータス In Orbit
所有者/国 AFSMC/US

大規模コンステレーション

Loading constellations...